Regional Weather Roundup
Issued by NWS

Home | Current Version | Previous Version | Graphics & Text | Print | Product List | Glossary On
Versions: 1 2 3 4 5 6 7 8 9 10 11 12 13 14 15 16 17 18 19 20 21 22 23 24 25 26 27 28 29 30 31 32 33 34 35 36 37 38 39 40 41 42 43 44 45 46 47 48 49 50
000
ASUS43 KLOT 201308
RWRIL

ILLINOIS REGIONAL WEATHER ROUNDUP
NATIONAL WEATHER SERVICE CHICAGO/ROMEOVILLE IL
800 AM CDT FRI APR 20 2018

NOTE: "FAIR" INDICATES FEW OR NO CLOUDS BELOW 12,000 FEET WITH NO
SIGNIFICANT WEATHER AND/OR OBSTRUCTIONS TO VISIBILITY.

* THESE STATIONS ARE NOT UNDER NWS QUALITY CONTROL. THEY ALSO MAY NOT
  REPORT WEATHER SUCH AS PRECIPITATION OR FOG.

ILZ001-002-007-009-015-016-024-201400-
NORTHWEST ILLINOIS

CITY           SKY/WX    TMP DP  RH WIND       PRES   REMARKS
MOLINE         FAIR      34  31  88 CALM      30.52R
STERLING*      FAIR      35  31  85 CALM      30.53R
SAVANNA*       FAIR      33  29  87 CALM      30.53R
$$

ILZ003-004-008-010-011-017-018-201400-
NORTH CENTRAL ILLINOIS

CITY           SKY/WX    TMP DP  RH WIND       PRES   REMARKS
ROCKFORD       FAIR      32  28  85 CALM      30.52S
FREEPORT*      FAIR      34  28  79 W3        30.53R
ROCHELLE*      FAIR      32  31  96 CALM      30.52R
DE KALB*       FAIR      38  29  67 NW3       30.51R
PERU*          FAIR      36  31  82 CALM      30.52S
$$

ILZ005-006-012>014-019>023-201400-
NORTHEAST ILLINOIS

CITY           SKY/WX    TMP DP  RH WIND       PRES   REMARKS
CHICAGO-OHARE  FAIR      43  24  47 N5        30.49S
CHICAGO-MIDWAY FAIR      44  26  49 NE6       30.50S
AURORA         FAIR      36  31  82 W5        30.50R WCI  32
LANSING*       FAIR      36  32  85 CALM      30.51R
JOLIET*        FAIR      39  30  69 CALM      30.51R
WAUKEGAN       FAIR      41  24  51 N5        30.49S
DUPAGE AIRPORT FAIR      39  29  67 N5        30.49S
KANKAKEE*      FAIR      37  30  77 CALM      30.52R
WHEELING       FAIR      42  26  53 N5        30.51S
MORRIS*        FAIR      37  29  74 CALM      30.51R
ROMEOVILLE*    FAIR      40  29  64 CALM      30.51R
NORTHERLY ISL    N/A     43  23  45 N8          N/A
$$

LMZ740>746-201400-
SOUTHERN LAKE MICHIGAN

STATION/POSITION SKY/WX   TEMP    WIND        PRES    VSBY  WAVE
                          AIR SEA DIR/SP/G                  HT/PER
                          (F)     (DEG/KT/KT) (MB)    (MI)  (FT/S)
HARRISON CRIB              40     340/  5/  6   N/A
BURNHAM HARBOR             43      10/  6/  9   N/A
CALUMET HARBOR             42     360/  5/  7 1032.1R
BURNS HARBOR               39     330/  2/  3 1033.2R
MICHIGAN CITY              36     210/  1/  2   N/A
$$

ILZ025>027-034>036-040-047-049-050-058-095>099-201400-
WEST-CENTRAL ILLINOIS

CITY           SKY/WX    TMP DP  RH WIND       PRES   REMARKS
QUINCY         SUNNY     41  29  62 E7        30.50R
GALESBURG*     FAIR      41  34  75 CALM      30.53R
MACOMB*        SUNNY     37  30  77 NE3       30.53S
JACKSONVILLE*  SUNNY     38  29  72 CALM      30.51R
PITTSFIELD*    SUNNY     40  32  74 CALM      30.52S
$$

ILZ028>032-037-038-041>044-048-051>054-059>061-201400-
CENTRAL ILLINOIS

CITY           SKY/WX    TMP DP  RH WIND       PRES   REMARKS
PONTIAC        FAIR      36  31  84 CALM      30.53R
BLOOMINGTON    FAIR      38  28  67 N3        30.52R
DECATUR        FAIR      39  28  64 NE5       30.51R
PEORIA         FAIR      40  30  67 CALM      30.53R
LACON*         FAIR      34  32  93 CALM      30.52R
LINCOLN*       FAIR      37  31  77 CALM      30.52R
SPRINGFIELD    FAIR      40  31  70 CALM      30.52R
TAYLORVILLE    FAIR      42  24  49 E7        30.51R
$$

ILZ033-039-045-046-055>057-062-063-201400-
EAST-CENTRAL ILLINOIS

CITY           SKY/WX    TMP DP  RH WIND       PRES   REMARKS
CHAMPAIGN      FAIR      43  25  49 NE7       30.50R
DANVILLE*      FAIR      38  28  68 NE5       30.48R WCI  34
RANTOUL*       FAIR      42  29  60 NE7       30.51R
MATTOON        FAIR      38  27  64 NE6       30.49R WCI  33
PARIS*         FAIR      38  26  63 NE6       30.52R WCI  33
$$

ILZ079-100>102-201400-
SOUTHWEST ILLINOIS

CITY           SKY/WX    TMP DP  RH WIND       PRES   REMARKS
ALTON          SUNNY     41  28  60 E8        30.50R
BELLEVILLE     SUNNY     43  27  54 NE3       30.49R
CAHOKIA*       SUNNY     44  27  51 E6        30.50R
SPARTA*        SUNNY     42  26  53 E9        30.50R
$$

ILZ064>066-069>071-074>076-080>082-084>086-088>090-092>094-201400-
SOUTH-CENTRAL ILLINOIS

CITY           SKY/WX    TMP DP  RH WIND       PRES   REMARKS
CARBONDALE     FAIR      43  24  47 NE10      30.47R
CAIRO*         FAIR      42  28  57 NE10      30.45R
EFFINGHAM*     FAIR      42  23  48 NE6       30.52R
MARION         MOSUNNY   39  27  60 NE8       30.48R WCI  34
MT. VERNON     FAIR      42  22  44 NE12      30.49R
CENTRALIA*     SUNNY     43  26  52 E10       30.48S
SALEM*         FAIR      43  21  41 NE7       30.50R
METROPOLIS*    FAIR      43  26  52 NE6       30.46R
$$

ILZ067-068-072-073-078-083-087-091-201400-
SOUTHEAST ILLINOIS

CITY           SKY/WX    TMP DP  RH WIND       PRES   REMARKS
LAWRENCEVILLE  FAIR      42  21  43 NE10      30.50R
FLORA*         FAIR      42  22  46 NE9       30.50R
FAIRFIELD*     FAIR      41  23  49 NE8       30.49R
HARRISBURG*    FAIR      42  24  48 NE6       30.49R
ROBINSON*      FAIR      39  27  60 NE7       30.51S WCI  34
CARMI*         FAIR      42  25  51 NE14      30.48R
$$

ABBREVIATIONS USED IN REMARKS
   TC - TEMPERATURE IN CELSIUS
  WCI - WIND CHILL INDEX
   HX - HEAT INDEX
  VSB - VISIBILITY
$$





USA.gov is the U.S. government's official web portal to all federal, state and local government web resources and services.